Orbital Elements at Epoch 2459200.5 (2020-Dec-17.0) TDB
Reference: JPL 34 (heliocentric ecliptic J2000)
Element | Value | Uncertainty (1-sigma) | Units |
e | .1799172000455151 | 6.3674e-08 | |
a | 2.530697804853677 | 9.2264e-09 | au |
q | 2.075381741643072 | 1.6292e-07 | au |
i | 9.883168949919169 | 3.0832e-06 | deg |
node | 128.2668542013145 | 3.6554e-05 | deg |
peri | 110.7400941014943 | 3.8068e-05 | deg |
M | 221.7993903203399 | 1.2794e-05 | deg |
tp | 2459765.003082323835 (2022-Jul-04.50308232) | 5.3976e-05 | TDB |
period | 1470.479110820377 4.03 | 8.0416e-06 2.202e-08 | d yr |
n | .2448181666444462 | 1.3388e-09 | deg/d |
Q | 2.986013868064282 | 1.0886e-08 | au |
|
| | Orbit Determination Parameters
Additional Information
|